QPF
0.00 0.00 0.00 0.00 0.00 0.00 0.00 0.01 0.01 0.01 0.01 0.01 0.04 0.09 0.17 0.21 0.22 0.19 0.13 0.07 0.04 0.02 0.01 0.01 0.00 0.00 0.00 0.00 0.01 0.01 0.01 0.01 0.01 0.01 0.01 0.00 0.00 0.00 0.00 0.00 0.00 0.00 0.00 0.00
0.00 0.00 0.00 0.00 0.00 0.00 0.00 0.00 0.01 0.01 0.02 0.02 0.05 0.11 0.17 0.18 0.17 0.15 0.12 0.07 0.04 0.02 0.01 0.00 0.00 0.00 0.00 0.01 0.01 0.01 0.01 0.01 0.01 0.01 0.01 0.01 0.00 0.00 0.00 0.00 0.00 0.00 0.00 0.00
0.00 0.00 0.00 0.00 0.00 0.00 0.00 0.00 0.01 0.02 0.03 0.03 0.06 0.10 0.13 0.13 0.12 0.10 0.08 0.05 0.03 0.02 0.01 0.00 0.00 0.01 0.01 0.02 0.03 0.03 0.02 0.01 0.01 0.01 0.01 0.01 0.00 0.00 0.00 0.00 0.00 0.00 0.00 0.00
0.00 0.00 0.00 0.00 0.00 0.00 0.00 0.00 0.00 0.01 0.01 0.01 0.02 0.03 0.03 0.04 0.05 0.04 0.03 0.02 0.01 0.01 0.00 0.00 0.00 0.01 0.02 0.04 0.07 0.06 0.04 0.02 0.01 0.01 0.01 0.00 0.00 0.00 0.00 0.00 0.01 0.01 0.01 0.00
0.00 0.00 0.00 0.00 0.00 0.00 0.00 0.00 0.00 0.00 0.00 0.00 0.00 0.01 0.02 0.01 0.01 0.01 0.00 0.00 0.00 0.00 0.00 0.00 0.01 0.02 0.03 0.05 0.09 0.09 0.07 0.03 0.01 0.01 0.00 0.00 0.00 0.00 0.00 0.00 0.00 0.01 0.01 0.00
0.00 0.00 0.00 0.00 0.00 0.00 0.00 0.00 0.00 0.00 0.00 0.00 0.00 0.02 0.03 0.01 0.00 0.00 0.00 0.00 0.00 0.00 0.00 0.01 0.02 0.03 0.04 0.06 0.07 0.08 0.05 0.02 0.01 0.01 0.00 0.00 0.00 0.00 0.00 0.00 0.00 0.00 0.01 0.00
0.00 0.00 0.00 0.00 0.00 0.00 0.00 0.00 0.00 0.00 0.00 0.00 0.00 0.00 0.00 0.00 0.00 0.00 0.00 0.00 0.00 0.00 0.01 0.02 0.03 0.03 0.05 0.06 0.05 0.05 0.02 0.01 0.00 0.00 0.00 0.00 0.00 0.00 0.00 0.00 0.00 0.00 0.00 0.00
0.00 0.00 0.00 0.00 0.00 0.00 0.00 0.00 0.00 0.00 0.00 0.00 0.00 0.00 0.00 0.00 0.00 0.00 0.00 0.00 0.00 0.00 0.01 0.02 0.02 0.03 0.04 0.03 0.02 0.02 0.01 0.00 0.00 0.00 0.00 0.01 0.01 0.01 0.00 0.00 0.00 0.00 0.00 0.00
0.00 0.00 0.00 0.00 0.00 0.00 0.00 0.00 0.00 0.00 0.00 0.00 0.00 0.00 0.00 0.00 0.00 0.00 0.00 0.00 0.00 0.01 0.01 0.02 0.02 0.02 0.02 0.01 0.00 0.00 0.00 0.00 0.00 0.00 0.00 0.01 0.01 0.01 0.00 0.00 0.01 0.01 0.01 0.00
0.00 0.00 0.00 0.00 0.00 0.00 0.00 0.00 0.00 0.00 0.00 0.00 0.00 0.00 0.00 0.00 0.00 0.00 0.00 0.00 0.00 0.00 0.01 0.02 0.03 0.02 0.01 0.01 0.00 0.00 0.00 0.00 0.00 0.00 0.00 0.00 0.00 0.00 0.00 0.00 0.00 0.00 0.00 0.00
0.00 0.00 0.00 0.00 0.00 0.00 0.00 0.00 0.00 0.00 0.00 0.00 0.00 0.00 0.00 0.00 0.00 0.00 0.00 0.00 0.00 0.00 0.01 0.02 0.02 0.02 0.01 0.00 0.00 0.00 0.00 0.00 0.00 0.00 0.00 0.00 0.00 0.00 0.00 0.00 0.00 0.00 0.00 0.00
0.00 0.00 0.00 0.00 0.00 0.00 0.00 0.00 0.00 0.00 0.00 0.00 0.00 0.00 0.00 0.00 0.00 0.00 0.00 0.00 0.00 0.00 0.01 0.01 0.01 0.01 0.00 0.00 0.00 0.00 0.00 0.00 0.00 0.00 0.00 0.00 0.00 0.00 0.00 0.00 0.00 0.00 0.00 0.00
0.00 0.00 0.00 0.00 0.00 0.00 0.00 0.00 0.00 0.00 0.00 0.00 0.00 0.00 0.00 0.00 0.00 0.00 0.00 0.00 0.00 0.00 0.00 0.00 0.00 0.00 0.00 0.00 0.00 0.00 0.00 0.00 0.00 0.00 0.00 0.00 0.00 0.00 0.00 0.00 0.00 0.00 0.00 0.00
0.00 0.00 0.00 0.00 0.00 0.00 0.00 0.00 0.00 0.00 0.00 0.00 0.00 0.00 0.00 0.00 0.00 0.00 0.00 0.00 0.00 0.00 0.00 0.00 0.00 0.00 0.00 0.00 0.00 0.00 0.00 0.00 0.00 0.00 0.00 0.00 0.00 0.00 0.00 0.00 0.00 0.00 0.00 0.00
0.00 0.00 0.00 0.00 0.00 0.00 0.00 0.00 0.01 0.01 0.00 0.00 0.00 0.00 0.00 0.00 0.00 0.00 0.00 0.00 0.00 0.00 0.00 0.00 0.00 0.00 0.00 0.00 0.00 0.00 0.00 0.00 0.00 0.00 0.00 0.00 0.00 0.00 0.00 0.00 0.00 0.00 0.00 0.00
0.01 0.01 0.01 0.00 0.00 0.00 0.00 0.00 0.01 0.01 0.00 0.00 0.00 0.00 0.00 0.00 0.00 0.00 0.00 0.00 0.00 0.00 0.00 0.00 0.00 0.00 0.00 0.00 0.00 0.00 0.00 0.00 0.00 0.00 0.00 0.00 0.00 0.00 0.00 0.00 0.00 0.00 0.00 0.00
0.02 0.02 0.02 0.01 0.01 0.00 0.00 0.00 0.01 0.01 0.00 0.00 0.00 0.00 0.00 0.00 0.00 0.00 0.00 0.00 0.00 0.00 0.00 0.00 0.00 0.00 0.00 0.00 0.00 0.00 0.00 0.00 0.00 0.00 0.00 0.00 0.00 0.00 0.00 0.00 0.00 0.00 0.00 0.00
0.01 0.01 0.01 0.01 0.00 0.00 0.00 0.00 0.00 0.00 0.00 0.00 0.00 0.00 0.00 0.00 0.00 0.00 0.00 0.00 0.00 0.00 0.00 0.00 0.00 0.00 0.00 0.00 0.00 0.00 0.00 0.00 0.00 0.00 0.00 0.00 0.00 0.00 0.00 0.00 0.00 0.00 0.00 0.00
0.01 0.01 0.00 0.00 0.00 0.00 0.00 0.00 0.00 0.00 0.00 0.00 0.00 0.00 0.00 0.00 0.00 0.00 0.00 0.00 0.00 0.00 0.00 0.00 0.00 0.00 0.00 0.00 0.00 0.00 0.00 0.00 0.00 0.00 0.00 0.00 0.00 0.00 0.00 0.00 0.00 0.00 0.00 0.00
0.02 0.01 0.01 0.00 0.00 0.00 0.00 0.00 0.00 0.00 0.00 0.00 0.00 0.00 0.00 0.00 0.00 0.00 0.00 0.00 0.00 0.00 0.00 0.00 0.00 0.00 0.00 0.00 0.00 0.00 0.00 0.00 0.00 0.00 0.00 0.00 0.00 0.00 0.00 0.00 0.00 0.00 0.00 0.00
0.10 0.08 0.06 0.04 0.03 0.02 0.01 0.00 0.00 0.00 0.00 0.00 0.00 0.00 0.00 0.00 0.00 0.00 0.00 0.00 0.00 0.00 0.00 0.00 0.00 0.00 0.00 0.00 0.00 0.00 0.00 0.00 0.00 0.00 0.00 0.00 0.00 0.00 0.00 0.00 0.00 0.00 0.00 0.00
0.17 0.15 0.13 0.09 0.06 0.04 0.02 0.01 0.01 0.00 0.00 0.00 0.00 0.00 0.00 0.00 0.00 0.00 0.00 0.00 0.00 0.00 0.00 0.00 0.00 0.00 0.00 0.00 0.00 0.00 0.00 0.00 0.00 0.00 0.00 0.00 0.00 0.00 0.00 0.00 0.00 0.00 0.00 0.01
0.11 0.10 0.09 0.07 0.05 0.03 0.02 0.01 0.01 0.00 0.00 0.00 0.00 0.00 0.00 0.00 0.00 0.00 0.00 0.00 0.00 0.00 0.00 0.00 0.00 0.00 0.00 0.00 0.00 0.00 0.00 0.00 0.00 0.00 0.00 0.00 0.00 0.00 0.00 0.00 0.00 0.01 0.01 0.01
0.01 0.01 0.01 0.01 0.01 0.01 0.00 0.00 0.00 0.00 0.00 0.00 0.00 0.00 0.00 0.00 0.00 0.00 0.00 0.00 0.00 0.00 0.00 0.00 0.00 0.00 0.00 0.00 0.00 0.00 0.00 0.00 0.00 0.00 0.00 0.00 0.00 0.00 0.00 0.00 0.00 0.00 0.00 0.00
0.00 0.00 0.00 0.00 0.01 0.01 0.00 0.00 0.00 0.00 0.00 0.00 0.00 0.00 0.00 0.01 0.01 0.00 0.00 0.00 0.00 0.00 0.00 0.00 0.00 0.00 0.00 0.00 0.00 0.00 0.00 0.00 0.00 0.00 0.00 0.00 0.00 0.00 0.00 0.00 0.00 0.00 0.00 0.00
0.00 0.00 0.01 0.01 0.01 0.01 0.01 0.01 0.01 0.01 0.01 0.01 0.01 0.01 0.01 0.01 0.01 0.01 0.01 0.01 0.01 0.00 0.00 0.00 0.00 0.00 0.00 0.00 0.00 0.00 0.00 0.00 0.00 0.00 0.00 0.00 0.00 0.00 0.00 0.00 0.00 0.00 0.01 0.01
0.00 0.01 0.01 0.02 0.02 0.02 0.03 0.03 0.04 0.04 0.04 0.03 0.02 0.02 0.02 0.02 0.02 0.02 0.01 0.01 0.01 0.00 0.00 0.00 0.00 0.00 0.00 0.00 0.00 0.00 0.00 0.00 0.00 0.00 0.00 0.00 0.00 0.00 0.00 0.00 0.00 0.01 0.01 0.01
MSLP
1015.23 1015.54 1015.80 1015.99 1016.11 1016.14 1016.06 1015.89 1015.63 1015.30 1014.93 1014.55 1014.19 1013.87 1013.61 1013.40 1013.25 1013.13 1013.03 1012.95 1012.89 1012.83 1012.78 1012.77 1012.79 1012.86 1012.97 1013.12 1013.29 1013.46 1013.62 1013.75 1013.85 1013.91 1013.94 1013.95 1013.95 1013.94 1013.94 1013.93 1013.90 1013.85 1013.76 1013.63
1015.15 1015.36 1015.47 1015.50 1015.42 1015.26 1015.03 1014.74 1014.43 1014.12 1013.83 1013.58 1013.39 1013.24 1013.15 1013.09 1013.04 1012.99 1012.95 1012.89 1012.83 1012.78 1012.75 1012.77 1012.84 1012.96 1013.13 1013.32 1013.53 1013.73 1013.89 1014.02 1014.09 1014.12 1014.12 1014.11 1014.09 1014.08 1014.08 1014.08 1014.07 1014.04 1013.97 1013.87
1014.94 1015.04 1015.03 1014.90 1014.68 1014.39 1014.05 1013.71 1013.40 1013.13 1012.94 1012.83 1012.79 1012.80 1012.85 1012.91 1012.95 1012.96 1012.94 1012.88 1012.82 1012.77 1012.75 1012.79 1012.89 1013.05 1013.26 1013.49 1013.73 1013.94 1014.11 1014.22 1014.27 1014.27 1014.25 1014.22 1014.19 1014.18 1014.19 1014.21 1014.23 1014.23 1014.20 1014.14
1014.66 1014.64 1014.51 1014.27 1013.94 1013.57 1013.18 1012.83 1012.54 1012.34 1012.25 1012.27 1012.36 1012.51 1012.68 1012.83 1012.93 1012.98 1012.97 1012.91 1012.84 1012.78 1012.77 1012.81 1012.93 1013.11 1013.34 1013.60 1013.85 1014.07 1014.23 1014.33 1014.36 1014.35 1014.31 1014.27 1014.25 1014.25 1014.28 1014.34 1014.40 1014.45 1014.47 1014.45
1014.37 1014.23 1013.98 1013.64 1013.24 1012.81 1012.40 1012.06 1011.81 1011.69 1011.70 1011.82 1012.02 1012.27 1012.53 1012.75 1012.90 1012.98 1012.98 1012.93 1012.85 1012.79 1012.77 1012.82 1012.94 1013.14 1013.38 1013.65 1013.90 1014.12 1014.27 1014.36 1014.39 1014.37 1014.33 1014.30 1014.30 1014.33 1014.40 1014.50 1014.60 1014.70 1014.77 1014.79
1014.09 1013.81 1013.45 1013.03 1012.56 1012.10 1011.68 1011.36 1011.16 1011.09 1011.17 1011.37 1011.66 1011.99 1012.32 1012.59 1012.79 1012.90 1012.92 1012.88 1012.82 1012.76 1012.74 1012.80 1012.93 1013.12 1013.37 1013.64 1013.89 1014.10 1014.26 1014.35 1014.38 1014.37 1014.35 1014.35 1014.38 1014.45 1014.56 1014.70 1014.86 1015.00 1015.11 1015.18
1013.78 1013.38 1012.92 1012.41 1011.89 1011.40 1010.98 1010.67 1010.50 1010.48 1010.61 1010.86 1011.20 1011.59 1011.96 1012.29 1012.53 1012.68 1012.74 1012.74 1012.70 1012.67 1012.68 1012.75 1012.88 1013.09 1013.33 1013.59 1013.84 1014.06 1014.22 1014.32 1014.37 1014.40 1014.41 1014.45 1014.52 1014.63 1014.79 1014.98 1015.17 1015.35 1015.49 1015.59
1013.39 1012.88 1012.32 1011.75 1011.19 1010.68 1010.26 1009.95 1009.80 1009.80 1009.95 1010.23 1010.61 1011.02 1011.44 1011.81 1012.11 1012.31 1012.44 1012.50 1012.51 1012.53 1012.58 1012.67 1012.82 1013.03 1013.27 1013.53 1013.79 1014.01 1014.18 1014.31 1014.40 1014.46 1014.53 1014.61 1014.73 1014.89 1015.09 1015.30 1015.53 1015.73 1015.89 1016.00
1012.82 1012.22 1011.61 1010.99 1010.41 1009.89 1009.47 1009.17 1009.02 1009.03 1009.19 1009.48 1009.87 1010.31 1010.76 1011.18 1011.54 1011.82 1012.02 1012.16 1012.25 1012.34 1012.43 1012.56 1012.74 1012.96 1013.20 1013.47 1013.72 1013.95 1014.15 1014.31 1014.45 1014.57 1014.69 1014.82 1014.99 1015.19 1015.41 1015.65 1015.89 1016.10 1016.27 1016.39
1011.98 1011.34 1010.70 1010.08 1009.50 1009.00 1008.59 1008.31 1008.17 1008.19 1008.35 1008.64 1009.03 1009.49 1009.97 1010.44 1010.86 1011.22 1011.51 1011.74 1011.93 1012.09 1012.25 1012.43 1012.63 1012.86 1013.12 1013.38 1013.64 1013.89 1014.12 1014.32 1014.50 1014.67 1014.85 1015.04 1015.25 1015.48 1015.72 1015.97 1016.21 1016.42 1016.59 1016.70
1010.82 1010.19 1009.57 1008.98 1008.45 1008.00 1007.64 1007.39 1007.28 1007.30 1007.46 1007.75 1008.15 1008.61 1009.12 1009.63 1010.12 1010.56 1010.94 1011.27 1011.55 1011.79 1012.02 1012.24 1012.48 1012.73 1012.99 1013.26 1013.53 1013.79 1014.04 1014.28 1014.51 1014.73 1014.96 1015.20 1015.44 1015.69 1015.95 1016.20 1016.43 1016.63 1016.79 1016.90
1009.36 1008.78 1008.23 1007.73 1007.29 1006.92 1006.63 1006.45 1006.37 1006.42 1006.59 1006.88 1007.28 1007.75 1008.27 1008.82 1009.35 1009.86 1010.33 1010.74 1011.10 1011.42 1011.72 1011.99 1012.25 1012.52 1012.79 1013.06 1013.34 1013.61 1013.89 1014.16 1014.43 1014.70 1014.97 1015.24 1015.51 1015.77 1016.03 1016.27 1016.49 1016.68 1016.83 1016.95
1007.72 1007.21 1006.77 1006.39 1006.07 1005.82 1005.64 1005.54 1005.53 1005.61 1005.80 1006.09 1006.48 1006.95 1007.47 1008.03 1008.60 1009.16 1009.68 1010.16 1010.59 1010.97 1011.32 1011.63 1011.92 1012.20 1012.48 1012.76 1013.05 1013.34 1013.64 1013.93 1014.23 1014.53 1014.83 1015.12 1015.41 1015.67 1015.93 1016.16 1016.37 1016.55 1016.70 1016.83
1006.06 1005.66 1005.35 1005.11 1004.93 1004.81 1004.75 1004.74 1004.80 1004.93 1005.13 1005.42 1005.79 1006.24 1006.75 1007.30 1007.87 1008.44 1008.99 1009.51 1009.98 1010.41 1010.80 1011.15 1011.47 1011.77 1012.06 1012.36 1012.65 1012.96 1013.27 1013.59 1013.91 1014.23 1014.54 1014.84 1015.13 1015.39 1015.64 1015.86 1016.06 1016.23 1016.39 1016.53
1004.59 1004.31 1004.12 1004.02 1003.99 1004.00 1004.05 1004.14 1004.26 1004.42 1004.64 1004.91 1005.25 1005.65 1006.11 1006.62 1007.16 1007.71 1008.26 1008.78 1009.28 1009.73 1010.15 1010.53 1010.88 1011.21 1011.52 1011.83 1012.15 1012.47 1012.80 1013.13 1013.46 1013.79 1014.11 1014.41 1014.69 1014.95 1015.18 1015.39 1015.58 1015.75 1015.91 1016.07
1003.52 1003.33 1003.26 1003.27 1003.35 1003.47 1003.62 1003.77 1003.94 1004.12 1004.32 1004.55 1004.84 1005.17 1005.55 1005.99 1006.46 1006.96 1007.47 1007.98 1008.47 1008.93 1009.37 1009.77 1010.16 1010.52 1010.86 1011.20 1011.54 1011.89 1012.23 1012.58 1012.92 1013.25 1013.56 1013.85 1014.12 1014.37 1014.58 1014.78 1014.96 1015.13 1015.30 1015.48
1002.95 1002.84 1002.84 1002.93 1003.08 1003.27 1003.47 1003.66 1003.84 1004.00 1004.17 1004.34 1004.54 1004.78 1005.06 1005.39 1005.77 1006.19 1006.63 1007.09 1007.56 1008.01 1008.46 1008.89 1009.30 1009.71 1010.10 1010.48 1010.85 1011.23 1011.59 1011.95 1012.30 1012.63 1012.93 1013.21 1013.46 1013.68 1013.89 1014.07 1014.25 1014.42 1014.60 1014.79
1002.91 1002.82 1002.85 1002.98 1003.16 1003.36 1003.57 1003.75 1003.90 1004.02 1004.12 1004.21 1004.31 1004.43 1004.59 1004.80 1005.06 1005.37 1005.73 1006.12 1006.54 1006.98 1007.43 1007.88 1008.34 1008.78 1009.22 1009.65 1010.08 1010.49 1010.89 1011.26 1011.62 1011.94 1012.23 1012.49 1012.73 1012.93 1013.12 1013.30 1013.47 1013.64 1013.83 1014.03
1003.30 1003.20 1003.21 1003.31 1003.47 1003.64 1003.80 1003.94 1004.03 1004.08 1004.09 1004.08 1004.06 1004.06 1004.09 1004.17 1004.30 1004.49 1004.75 1005.07 1005.44 1005.85 1006.29 1006.76 1007.25 1007.74 1008.24 1008.73 1009.20 1009.66 1010.09 1010.49 1010.86 1011.18 1011.47 1011.72 1011.93 1012.12 1012.30 1012.47 1012.64 1012.82 1013.01 1013.23
1003.91 1003.76 1003.72 1003.75 1003.83 1003.93 1004.02 1004.08 1004.09 1004.05 1003.97 1003.86 1003.73 1003.60 1003.51 1003.45 1003.46 1003.54 1003.70 1003.93 1004.24 1004.62 1005.05 1005.54 1006.05 1006.59 1007.14 1007.69 1008.22 1008.73 1009.20 1009.62 1010.00 1010.34 1010.62 1010.86 1011.07 1011.26 1011.43 1011.60 1011.77 1011.96 1012.17 1012.40
1004.51 1004.28 1004.15 1004.09 1004.07 1004.08 1004.07 1004.04 1003.96 1003.83 1003.66 1003.45 1003.23 1003.00 1002.80 1002.63 1002.53 1002.51 1002.57 1002.73 1002.98 1003.31 1003.73 1004.22 1004.76 1005.34 1005.93 1006.53 1007.11 1007.67 1008.18 1008.64 1009.04 1009.38 1009.68 1009.92 1010.13 1010.32 1010.50 1010.68 1010.88 1011.09 1011.32 1011.57
1004.90 1004.58 1004.35 1004.18 1004.05 1003.95 1003.84 1003.71 1003.55 1003.35 1003.11 1002.83 1002.53 1002.23 1001.94 1001.69 1001.51 1001.40 1001.38 1001.47 1001.66 1001.96 1002.36 1002.84 1003.39 1003.99 1004.62 1005.26 1005.89 1006.48 1007.03 1007.52 1007.95 1008.32 1008.63 1008.89 1009.12 1009.33 1009.52 1009.73 1009.95 1010.19 1010.45 1010.74
1004.96 1004.55 1004.21 1003.93 1003.70 1003.49 1003.29 1003.09 1002.86 1002.60 1002.31 1001.99 1001.65 1001.30 1000.96 1000.66 1000.42 1000.25 1000.17 1000.20 1000.34 1000.60 1000.97 1001.43 1001.98 1002.60 1003.25 1003.92 1004.58 1005.20 1005.79 1006.31 1006.77 1007.16 1007.50 1007.79 1008.04 1008.28 1008.51 1008.75 1009.01 1009.29 1009.59 1009.92
1004.67 1004.18 1003.75 1003.37 1003.04 1002.75 1002.48 1002.21 1001.94 1001.65 1001.33 1000.99 1000.64 1000.27 999.92 999.59 999.32 999.11 998.99 998.97 999.07 999.29 999.63 1000.07 1000.61 1001.22 1001.87 1002.55 1003.23 1003.88 1004.49 1005.04 1005.53 1005.96 1006.33 1006.65 1006.94 1007.21 1007.48 1007.77 1008.07 1008.40 1008.76 1009.13
1004.12 1003.56 1003.05 1002.60 1002.20 1001.84 1001.51 1001.20 1000.90 1000.60 1000.28 999.94 999.60 999.24 998.89 998.56 998.27 998.05 997.90 997.85 997.92 998.10 998.41 998.82 999.33 999.93 1000.57 1001.25 1001.94 1002.60 1003.23 1003.80 1004.32 1004.77 1005.17 1005.53 1005.86 1006.17 1006.49 1006.82 1007.18 1007.56 1007.97 1008.40
1003.43 1002.82 1002.26 1001.75 1001.30 1000.89 1000.53 1000.19 999.88 999.57 999.26 998.94 998.61 998.28 997.95 997.63 997.35 997.12 996.96 996.90 996.94 997.09 997.37 997.75 998.23 998.80 999.43 1000.10 1000.78 1001.44 1002.08 1002.66 1003.20 1003.68 1004.11 1004.50 1004.87 1005.23 1005.59 1005.97 1006.37 1006.81 1007.27 1007.75
1002.72 1002.09 1001.50 1000.96 1000.47 1000.04 999.65 999.30 998.97 998.67 998.37 998.07 997.76 997.45 997.15 996.85 996.58 996.36 996.21 996.14 996.16 996.30 996.54 996.90 997.36 997.90 998.51 999.16 999.82 1000.48 1001.12 1001.71 1002.26 1002.76 1003.22 1003.64 1004.04 1004.43 1004.83 1005.25 1005.70 1006.17 1006.68 1007.21
Thickness
5669 5675 5677 5673 5672 5665 5648 5636 5623 5624 5624 5627 5626 5622 5619 5615 5611 5612 5614 5619 5622 5622 5624 5627 5629 5630 5632 5633 5635 5636 5636 5635 5635 5636 5636 5635 5634 5635 5636 5635 5634 5633 5633 5633
5669 5676 5675 5670 5672 5668 5660 5652 5642 5636 5630 5635 5631 5624 5618 5612 5608 5607 5608 5612 5615 5617 5618 5619 5621 5622 5623 5624 5625 5626 5625 5625 5626 5627 5627 5626 5626 5626 5626 5625 5624 5623 5622 5621
5649 5661 5659 5653 5668 5668 5663 5660 5649 5634 5632 5634 5627 5621 5615 5611 5608 5606 5606 5608 5610 5611 5611 5612 5613 5614 5614 5615 5616 5616 5616 5616 5616 5616 5616 5616 5617 5617 5616 5616 5614 5613 5612 5611
5640 5643 5637 5654 5679 5678 5666 5661 5655 5647 5640 5634 5628 5624 5620 5615 5610 5607 5606 5606 5606 5606 5605 5606 5607 5608 5608 5608 5608 5608 5607 5606 5607 5607 5607 5606 5606 5607 5607 5607 5606 5604 5602 5601
5628 5626 5638 5660 5673 5672 5659 5652 5654 5647 5642 5637 5631 5623 5617 5619 5615 5609 5607 5605 5603 5603 5602 5601 5601 5602 5601 5601 5601 5600 5599 5599 5599 5599 5598 5598 5597 5598 5598 5598 5596 5595 5593 5592
5627 5622 5622 5647 5672 5676 5659 5640 5652 5649 5642 5636 5625 5609 5610 5619 5616 5612 5608 5605 5602 5601 5598 5596 5596 5597 5596 5595 5595 5594 5594 5593 5593 5593 5591 5590 5590 5590 5590 5589 5587 5586 5583 5581
5625 5620 5629 5658 5671 5667 5636 5634 5652 5652 5646 5638 5625 5622 5622 5622 5616 5612 5609 5606 5603 5600 5596 5594 5594 5594 5592 5591 5590 5591 5590 5589 5588 5587 5586 5585 5585 5584 5583 5581 5578 5575 5572 5570
5623 5615 5623 5661 5661 5648 5647 5655 5655 5653 5650 5643 5635 5631 5625 5621 5616 5611 5608 5606 5603 5597 5594 5593 5592 5591 5588 5587 5587 5587 5585 5584 5582 5582 5582 5582 5579 5578 5576 5573 5569 5565 5562 5559
5631 5632 5650 5657 5657 5660 5659 5655 5655 5653 5652 5647 5638 5632 5627 5622 5617 5613 5610 5606 5602 5598 5594 5592 5591 5589 5586 5585 5585 5583 5581 5579 5578 5577 5577 5576 5574 5572 5569 5566 5562 5558 5554 5551
5637 5643 5652 5656 5659 5659 5657 5658 5659 5657 5654 5648 5641 5636 5630 5624 5619 5615 5611 5607 5603 5598 5594 5592 5590 5589 5586 5585 5583 5580 5577 5575 5573 5572 5570 5569 5568 5566 5564 5561 5557 5553 5549 5546
5633 5640 5645 5652 5655 5657 5657 5658 5658 5657 5655 5650 5645 5638 5632 5627 5621 5617 5613 5609 5605 5600 5596 5593 5591 5589 5587 5584 5581 5577 5574 5572 5570 5567 5565 5563 5560 5558 5557 5555 5554 5550 5546 5543
5636 5643 5639 5644 5653 5657 5655 5653 5655 5654 5651 5650 5646 5640 5635 5629 5624 5619 5614 5610 5606 5602 5598 5595 5591 5588 5586 5584 5580 5576 5572 5569 5566 5563 5560 5557 5554 5551 5550 5549 5547 5546 5543 5539
5654 5655 5651 5652 5655 5657 5654 5653 5653 5652 5650 5646 5645 5642 5636 5629 5624 5619 5615 5611 5607 5603 5599 5595 5591 5588 5585 5583 5579 5575 5571 5568 5565 5561 5558 5554 5550 5547 5543 5541 5540 5538 5536 5533
5662 5658 5653 5653 5652 5655 5653 5653 5653 5651 5650 5647 5644 5639 5635 5628 5622 5617 5614 5612 5608 5604 5599 5594 5590 5587 5585 5582 5578 5574 5571 5568 5564 5560 5557 5553 5549 5546 5542 5538 5534 5531 5530 5528
5665 5662 5657 5657 5655 5653 5653 5651 5647 5644 5644 5642 5640 5636 5631 5626 5621 5618 5615 5611 5606 5601 5597 5593 5589 5586 5584 5580 5576 5573 5569 5566 5563 5560 5556 5553 5549 5546 5542 5538 5533 5529 5525 5524
5666 5663 5659 5654 5651 5650 5648 5647 5643 5641 5641 5639 5637 5634 5631 5628 5623 5617 5612 5608 5602 5598 5595 5591 5588 5585 5582 5579 5575 5571 5568 5567 5563 5558 5555 5552 5549 5545 5542 5539 5534 5530 5526 5524
5658 5653 5651 5647 5646 5645 5643 5642 5640 5638 5637 5635 5634 5633 5629 5624 5618 5613 5609 5606 5603 5599 5596 5591 5587 5585 5581 5578 5574 5570 5567 5564 5564 5559 5555 5552 5549 5546 5544 5541 5538 5534 5532 5530
5659 5655 5649 5645 5641 5638 5636 5636 5634 5632 5630 5631 5630 5627 5623 5619 5616 5614 5610 5605 5600 5595 5592 5590 5587 5583 5580 5577 5573 5569 5565 5562 5559 5557 5554 5552 5549 5546 5543 5540 5539 5536 5532 5529
5641 5640 5639 5636 5633 5630 5627 5625 5625 5624 5624 5622 5621 5618 5617 5617 5617 5615 5610 5604 5598 5594 5591 5589 5585 5582 5578 5575 5572 5568 5564 5561 5558 5556 5554 5552 5549 5545 5542 5539 5537 5535 5532 5527
5614 5615 5618 5619 5619 5617 5615 5614 5615 5615 5615 5614 5611 5610 5609 5610 5611 5610 5606 5604 5605 5604 5598 5590 5584 5581 5577 5574 5570 5566 5563 5561 5557 5555 5553 5550 5547 5544 5542 5540 5537 5534 5531 5527
5590 5591 5594 5596 5598 5600 5601 5602 5602 5603 5604 5605 5603 5602 5603 5605 5607 5606 5603 5603 5607 5605 5599 5591 5586 5582 5577 5573 5568 5566 5563 5560 5558 5555 5553 5551 5548 5545 5542 5540 5538 5535 5532 5527
5574 5574 5575 5578 5579 5583 5588 5590 5592 5593 5595 5596 5597 5598 5598 5599 5602 5604 5606 5609 5611 5605 5599 5594 5589 5584 5579 5573 5569 5566 5563 5561 5559 5557 5554 5552 5549 5547 5544 5542 5539 5536 5532 5528
5562 5563 5563 5565 5567 5571 5576 5579 5581 5584 5586 5588 5590 5592 5593 5596 5599 5600 5603 5610 5610 5605 5600 5598 5593 5587 5579 5574 5570 5567 5565 5562 5560 5558 5556 5554 5552 5549 5546 5544 5540 5537 5532 5528
5548 5549 5551 5554 5557 5560 5563 5568 5572 5576 5579 5581 5584 5586 5589 5592 5596 5603 5608 5610 5608 5605 5602 5599 5594 5588 5580 5577 5573 5569 5566 5564 5562 5560 5558 5556 5554 5551 5548 5545 5541 5537 5533 5527
5529 5532 5535 5537 5541 5547 5552 5557 5561 5565 5569 5573 5576 5580 5583 5586 5590 5598 5604 5608 5607 5604 5601 5599 5593 5588 5584 5579 5575 5571 5569 5567 5565 5563 5560 5557 5555 5552 5549 5545 5541 5537 5531 5526
5507 5510 5515 5520 5525 5531 5538 5544 5550 5556 5560 5564 5568 5571 5573 5578 5583 5590 5597 5603 5604 5602 5600 5598 5594 5588 5585 5581 5577 5574 5571 5568 5566 5563 5561 5559 5556 5552 5549 5545 5540 5535 5529 5523
5489 5492 5497 5502 5509 5515 5522 5530 5537 5544 5549 5553 5557 5561 5564 5568 5572 5578 5585 5592 5596 5597 5597 5596 5594 5591 5587 5583 5579 5576 5572 5570 5567 5565 5562 5559 5556 5552 5548 5543 5538 5533 5527 5520